Regional Weather Roundup
Issued by NWS Portland, ME

Home | Current Version | Previous Version | Text Only | Print | Product List | Glossary On
Versions: 1 2 3 4 5 6 7 8 9 10 11 12 13 14 15 16 17 18 19 20 21 22 23 24 25 26 27 28 29 30 31 32 33 34 35 36 37 38 39 40 41 42 43 44 45 46 47 48 49 50
000
ASUS41 KGYX 012010
RWRGYX
WEATHER ROUNDUP FOR MAINE AND NEW HAMPSHIRE
NATIONAL WEATHER SERVICE GRAY ME
300 PM EST SUN FEB 01 2015

MEZ002-005-006-010-012-015-018-020-021-024-026-027-029-012100-
MAINE

CITY           SKY/WX    TMP DP  RH WIND       PRES   REMARKS
PORTLAND       SUNNY     24  -2  32 N10       30.06R WCI  14
SANFORD        SUNNY     19  -4  35 W15G23    30.06R WCI   5
BAR HARBOR     SUNNY     19   3  49 W10G18    29.98S WCI   8
WISCASSET      SUNNY     22  -8  26 NW8       30.06R
ROCKLAND       SUNNY     19   0  42 W14       30.00R WCI   6
FRYEBURG       SUNNY     21  -6  30 VRB6      30.05R
LEWISTONAUBURN SUNNY     18  -6  35 NW12G17   30.04R WCI   5
AUGUSTA        SUNNY     16  -8  34 W9G20     30.02R
WATERVILLE     SUNNY     18  -9  29 NW15      29.99S WCI   3
BANGOR         MOSUNNY   15  -7  37 NW16G29   29.99R WCI  -1
GREENVILLE       N/A      4 -10  52 NW10G22   29.87R WCI -11
MILLINOCKET    SUNNY     10  -7  46 W10G24    29.97R WCI  -4
HOULTON        SUNNY      7 -11  43 NW14G26   29.89R WCI -10
PRESQUE ISLE   SUNNY      5 -15  39 NW21G26   29.90R WCI -16
FRENCHVILLE    SUNNY     -2 -17  49 NW26G37   29.85R WCI -27
CARIBOU        SUNNY      3 -13  47 NW18G28   29.88R WCI -17
$$

NHZ002-005-008-009-011-012-014-012100-
NEW HAMPSHIRE

CITY           SKY/WX    TMP DP  RH WIND       PRES   REMARKS
PORTSMOUTH     MOSUNNY   24  -3  31 W14G20    30.07R WCI  11
ROCHESTER      SUNNY     21  -5  31 NW10G20   30.07R WCI  10
NASHUA         SUNNY     27   2  34 NW9       30.10R
MANCHESTER     MOSUNNY   25  -1  32 NW13      30.08R WCI  14
CONCORD        SUNNY     22  -6  29 NW14G22   30.10R WCI   9
LACONIA        SUNNY     19  -6  32 NW9G23    30.07R
PLYMOUTH       FAIR      17  -2  42 W10G18    30.10R WCI   5
BERLIN         SUNNY     10  -9  42 VRB6      30.03R
WHITEFIELD     SUNNY     11  -7  44 NW9       30.07R
JAFFREY        SUNNY     23  -2  33 VRB6      30.05R
KEENE          SUNNY     25   0  33 N10       30.10S WCI  15
LEBANON        SUNNY     19  -5  34 N8        30.11S
MT WASHINGTON  MOSUNNY  -11 -22  58 NW67        N/A  WCI -51
$$

VTZ005-007-008-012100-
VERMONT

CITY           SKY/WX    TMP DP  RH WIND       PRES   REMARKS
ST JOHNSBURY     N/A     12  -7  42 MISG      30.12R
MONTPELIER     SUNNY      8 -10  43 NW10      30.14R WCI  -6
BURLINGTON     PTSUNNY    8 -10  43 N8        30.23R
$$

MAZ007-012-024-CTZ003-RIZ002-NYZ038-NYZ072-012100-
SOUTHERN NEW ENGLAND AND NY

CITY           SKY/WX    TMP DP  RH WIND       PRES   REMARKS
BOSTON         PTSUNNY   30   5  34 W14       30.10R WCI  19
WORCESTER      SUNNY     27   9  46 W9        30.04R
NANTUCKET      SUNNY     32  18  56 NW13      30.09S
PROVIDENCE     MOSUNNY   32  11  41 W12       30.10S
HARTFORD       PTSUNNY   33  10  38 NW12      30.10S
ALBANY         PTSUNNY   26   8  46 NE3       30.14F
NEW YORK CITY  PTSUNNY   35  18  49 W8        30.14S
$$

ANZ081-ANZ082-ANZ150-NHZ014-MEZ023>029-012100-
COASTAL MARINE OBSERVATIONS

STATION/POSITION TIME  TEMP    WIND        PRES    WAVE
                       AIR SEA DIR/SP/G            HT/PER
                 (UTC) (F)     (DEG/KT/KT) (MB)    (FT/S)
MOUNT DESERT ROC 2000   21                 1014.0F
MATINICUS ROCK   2000          310/ 26/ 29 1015.8R
PORTLAND WX BUOY 1950   25 40  320/ 12/ 16 1017.7R   2/10
WELLS            1900   22 32  310/ 13/ 20 1016.8F
ISLE OF SHOALS   2000   24     290/ 24/ 26 1017.5R
JEFFREYS LEDGE   1921      44                N/A     5/ 5
CASHES LEDGE BUO 1950   25 43  300/ 17/ 25 1016.6R   5/ 5
$$

.............KEY..............
   WCI - WIND CHILL
   TC  - TEMPERATURE IN CELSIUS
   VSB - VISIBILITY IN MILES
   HX  - HEAT INDEX
   FAIR- INDICATES FEW OR NO CLOUDS BELOW 12,000 FT, WITH NO
         SIGNIFICANT WEATHER AND/OR OBSTRUCTIONS TO VISIBILITY.




USA.gov is the U.S. government's official web portal to all federal, state and local government web resources and services.